Weather History for Fort Drum, NY

Change the Weather History Date:

Thursday, May 23, 2013

  Actual Average Record
Temperature  
Mean Temperature 60 °F -  
Max Temperature 73 °F 64 °F 81 °F (2007)
Min Temperature 45 °F 44 °F 37 °F (2002)
Degree Days  
Heating Degree Days 6    
Growing Degree Days 10 (Base 50)    
Moisture  
Dew Point 62 °F    
Average Humidity 88    
Maximum Humidity 100    
Minimum Humidity 65    
Precipitation  
Precipitation 0.16 in - - ()
Sea Level Pressure  
Sea Level Pressure 29.74 in    
Wind  
Wind Speed 12 mph (WSW)    
Max Wind Speed 16 mph    
Max Gust Speed 26 mph    
Visibility 10 miles    
Events Rain    
Averages and records for this station are not official NWS values.
T = Trace of Precipitation, MM = Missing Value Source: NWS Daily Summary

Daily Weather History Graph

Daily Weather History Graph

Search for Another Location

Airport:

Trip Planner

Search our weather history database for the weather conditions in past years. The results will help you decide how hot, cold, wet, or windy it might be!

Date:

Astronomy

May. 23, 2013 Rise Set
Actual Time 5:28 AM EDT 8:31 PM EDT
Civil Twilight 4:54 AM EDT 9:05 PM EDT
Nautical Twilight 4:10 AM EDT 9:49 PM EDT
Astronomical Twilight 3:17 AM EDT 10:42 PM EDT
Moon 6:58 PM EDT (5/23) 4:15 AM EDT (5/23)
Length of Visible Light 16h 11m
Length of Day
15h 02m
Waxing Gibbous, 97% of the Moon is Illuminated
May 23
Waxing Gibbous
May 25
Full
May 31
Last Quarter
Jun 8
New
Jun 16
First Quarter

Hourly Weather History & Observations

Time (EDT) Temp. Windchill Dew Point Humidity Pressure Visibility Wind Dir Wind Speed Gust Speed Precip Events Conditions
12:51 AM 73.4 °F - 64.4 °F 73% 29.72 in 9.0 mi SW 15.0 mph 25.3 mph N/A Rain Light Rain
12:56 AM 71.6 °F - 66.2 °F 83% 29.72 in 4.0 mi SSW 16.1 mph 25.3 mph N/A Rain Heavy Rain
12:58 AM 72.5 °F - 65.3 °F 78% 29.71 in 4.0 mi SSW 15.0 mph 25.3 mph 0.03 in Rain Heavy Rain
1:03 AM 69.8 °F - 66.2 °F 88% 29.72 in 5.0 mi SSW 13.8 mph 23.0 mph N/A Rain Light Rain
1:08 AM 68.0 °F - 68.0 °F 100% 29.72 in 9.0 mi SSW 13.8 mph 23.0 mph N/A Rain Light Rain
1:14 AM 68.0 °F - 68.0 °F 100% 29.71 in 10.0 mi SSW 13.8 mph - N/A   Overcast
1:21 AM 68.0 °F - 68.0 °F 100% 29.72 in 10.0 mi SSW 16.1 mph - N/A   Light Drizzle
1:31 AM 68.0 °F - 68.0 °F 100% 29.71 in 6.0 mi SSW 12.7 mph 20.7 mph N/A Rain Light Rain
1:36 AM 68.0 °F - 68.0 °F 100% 29.71 in 10.0 mi SSW 10.4 mph - N/A   Mostly Cloudy
1:58 AM 67.6 °F - 67.6 °F 100% 29.71 in 10.0 mi WSW 4.6 mph - 0.05 in   Mostly Cloudy
2:58 AM 69.6 °F - 61.7 °F 76% 29.68 in 10.0 mi SSW 15.0 mph 20.7 mph 0.01 in   Partly Cloudy
3:58 AM 70.0 °F - 61.2 °F 73% 29.69 in 10.0 mi SW 8.1 mph 23.0 mph N/A   Mostly Cloudy
4:58 AM 69.6 °F - 61.2 °F 74% 29.69 in 10.0 mi SW 9.2 mph - N/A   Mostly Cloudy
5:40 AM 69.8 °F - 60.8 °F 73% 29.72 in 10.0 mi WSW 12.7 mph 20.7 mph N/A Rain Light Rain
5:58 AM 67.8 °F - 62.4 °F 83% 29.71 in 10.0 mi WSW 9.2 mph 16.1 mph 0.00 in   Light Drizzle
6:40 AM 66.2 °F - 64.4 °F 94% 29.73 in 10.0 mi SW 8.1 mph - N/A   Clear
6:58 AM 66.0 °F - 64.0 °F 93% 29.72 in 10.0 mi SW 8.1 mph - 0.00 in   Scattered Clouds
7:58 AM 67.3 °F - 64.2 °F 90% 29.72 in 10.0 mi SSW 8.1 mph - N/A   Partly Cloudy
8:41 AM 68.0 °F - 64.4 °F 88% 29.74 in 10.0 mi SSW 11.5 mph - N/A   Light Drizzle
8:58 AM 67.5 °F - 64.6 °F 90% 29.73 in 10.0 mi SSW 12.7 mph - 0.00 in   Light Drizzle
9:05 AM 68.0 °F - 64.4 °F 88% 29.74 in 10.0 mi SSW 16.1 mph - N/A   Partly Cloudy
9:58 AM 70.2 °F - 65.5 °F 85% 29.72 in 10.0 mi SSW 16.1 mph - 0.00 in   Scattered Clouds
10:06 AM 71.6 °F - 66.2 °F 83% 29.74 in 9.0 mi SSW 16.1 mph 23.0 mph N/A Rain Light Rain
10:11 AM 69.8 °F - 66.2 °F 88% 29.74 in 9.0 mi SW 11.5 mph 23.0 mph N/A Rain Light Rain
10:25 AM 68.0 °F - 66.2 °F 94% 29.74 in 10.0 mi SW 9.2 mph 17.3 mph N/A   Overcast
10:58 AM 69.8 °F - 64.2 °F 82% 29.73 in 10.0 mi SW 10.4 mph 19.6 mph 0.00 in   Overcast
11:18 AM 71.6 °F - 64.4 °F 78% 29.74 in 10.0 mi SW 13.8 mph 21.9 mph N/A   Scattered Clouds
11:48 AM 71.6 °F - 64.4 °F 78% 29.74 in 10.0 mi WSW 15.0 mph 21.9 mph N/A   Mostly Cloudy
11:54 AM 71.6 °F - 64.4 °F 78% 29.74 in 10.0 mi WSW 13.8 mph 20.7 mph N/A   Light Drizzle
11:58 AM 71.6 °F - 64.4 °F 78% 29.73 in 10.0 mi WSW 11.5 mph 19.6 mph 0.00 in   Light Drizzle
12:03 PM 71.6 °F - 64.4 °F 78% 29.74 in 10.0 mi WSW 10.4 mph 19.6 mph N/A   Light Drizzle
12:05 PM 71.6 °F - 64.4 °F 78% 29.74 in 10.0 mi WSW 12.7 mph 18.4 mph N/A   Mostly Cloudy
12:20 PM 73.4 °F - 64.4 °F 73% 29.74 in 10.0 mi WSW 16.1 mph 26.5 mph N/A   Mostly Cloudy
12:25 PM 71.6 °F - 64.4 °F 78% 29.73 in 10.0 mi WSW 16.1 mph 26.5 mph N/A   Mostly Cloudy
12:35 PM 71.6 °F - 64.4 °F 78% 29.73 in 10.0 mi West 13.8 mph 20.7 mph N/A   Mostly Cloudy
12:37 PM 71.6 °F - 64.4 °F 78% 29.73 in 10.0 mi WSW 10.4 mph 20.7 mph N/A Rain Light Rain
12:57 PM 68.0 °F - 66.2 °F 94% 29.74 in 10.0 mi West 9.2 mph - N/A Rain Light Rain
12:58 PM 68.0 °F - 66.2 °F 94% 29.73 in 10.0 mi WSW 10.4 mph - 0.01 in Rain Light Rain
1:03 PM 68.0 °F - 66.2 °F 94% 29.74 in 10.0 mi WSW 9.2 mph - N/A Rain Light Rain
1:13 PM 66.2 °F - 66.2 °F 100% 29.74 in 8.0 mi WSW 8.1 mph - N/A Rain Light Rain
1:43 PM 66.2 °F - 66.2 °F 100% 29.74 in 9.0 mi WSW 6.9 mph - N/A Rain Light Rain
1:48 PM 66.2 °F - 66.2 °F 100% 29.74 in 9.0 mi SW 5.8 mph - N/A Rain Light Rain
1:58 PM 66.4 °F - 66.4 °F 100% 29.74 in 10.0 mi WSW 6.9 mph - 0.03 in Rain Light Rain
2:02 PM 66.2 °F - 66.2 °F 100% 29.74 in 10.0 mi SW 10.4 mph - N/A   Scattered Clouds
2:37 PM 68.0 °F - 66.2 °F 94% 29.74 in 10.0 mi WSW 9.2 mph - N/A   Mostly Cloudy
2:42 PM 69.8 °F - 66.2 °F 88% 29.73 in 10.0 mi WSW 12.7 mph - N/A   Scattered Clouds
2:57 PM 69.8 °F - 64.4 °F 83% 29.73 in 10.0 mi SW 9.2 mph - N/A   Scattered Clouds
2:58 PM 69.8 °F - 64.4 °F 83% 29.73 in 10.0 mi SW 9.2 mph - 0.01 in   Scattered Clouds
3:58 PM 72.5 °F - 61.9 °F 69% 29.71 in 10.0 mi WSW 13.8 mph 21.9 mph N/A   Scattered Clouds
4:58 PM 71.8 °F - 61.7 °F 70% 29.70 in 10.0 mi WSW 12.7 mph 17.3 mph N/A   Partly Cloudy
5:58 PM 71.4 °F - 59.2 °F 65% 29.70 in 10.0 mi West 11.5 mph 19.6 mph N/A   Partly Cloudy
6:58 PM 67.5 °F - 59.7 °F 76% 29.73 in 10.0 mi NNW 10.4 mph - N/A   Scattered Clouds
7:13 PM 62.6 °F - 59.0 °F 88% 29.74 in 10.0 mi North 11.5 mph - N/A   Mostly Cloudy
7:28 PM 59.0 °F - 57.2 °F 94% 29.75 in 10.0 mi North 6.9 mph - N/A   Mostly Cloudy
7:33 PM 59.0 °F - 57.2 °F 94% 29.76 in 10.0 mi North 8.1 mph - N/A   Mostly Cloudy
7:58 PM 56.1 °F - 54.3 °F 94% 29.77 in 10.0 mi North 9.2 mph - N/A   Overcast
8:58 PM 52.3 °F - 51.3 °F 96% 29.79 in 10.0 mi North 10.4 mph - N/A   Overcast
9:17 PM 51.8 °F - 50.0 °F 94% 29.80 in 10.0 mi North 9.2 mph - N/A Rain Light Rain
9:27 PM 50.0 °F - 50.0 °F 100% 29.81 in 10.0 mi North 10.4 mph 17.3 mph N/A Rain Light Rain
9:58 PM 48.9 °F - 48.9 °F 100% 29.81 in 10.0 mi North 6.9 mph - 0.00 in Rain Light Rain
10:58 PM 46.8 °F - 46.8 °F 100% 29.82 in 10.0 mi North 9.2 mph - 0.01 in   Light Drizzle
11:11 PM 46.4 °F 42.4 °F 46.4 °F 100% 29.82 in 10.0 mi North 8.1 mph - N/A   Overcast
11:28 PM 46.4 °F 42.4 °F 46.4 °F 100% 29.83 in 10.0 mi NNE 8.1 mph - N/A   Light Drizzle
11:43 PM 46.4 °F 41.9 °F 46.4 °F 100% 29.83 in 10.0 mi North 9.2 mph - N/A Rain Light Rain
11:58 PM 45.3 °F 41.1 °F 45.3 °F 100% 29.83 in 10.0 mi North 8.1 mph - 0.01 in Rain Light Rain